User: anonymous
Location: South Range
(44.4886°N, 65.7879°W)
Time: 09:50:08
(UTC-03:00)
Language:

Iridium 56 - Orbit

View from above orbital plane
View from above orbital plane
View from above satellite
View from above satellite

Ground track
Ground track

The orbit data is extracted from the following two-line orbital elements,

1 25170U 98010B   14238.13601240 -.00000021  00000-0 -14713-4 0  7069
2 25170 086.3926 059.3410 0002287 113.4401 020.0427 14.34212148864694
Epoch (UTC): 26 August 2014 03:15:51
Eccentricity: 0.0002287
inclination: 86.3926°
perigee height: 776 km
apogee height: 779 km
right ascension of ascending node: 59.3410°
argument of perigee: 113.4401°
revolutions per day: 14.34212148
mean anomaly at epoch: 20.0427°
orbit number at epoch: 86469

The dashed part of the orbit path shows where the satellite is in the earth's shadow,  

DLR